| time (UTC) | temp C | wind direction | speed KPH | gust KPH | rain 1hr cm | rain 24hr cm | rain mn cm | humidity % | barometer mb |
| 20260507104517 | 15 | 158 | 3.2 | 12.9 | 0.00 | 0.00 | 0.00 | 66 | 1008.3 |
| 20260507103012 | 15 | 108 | 1.6 | 11.3 | 0.00 | 0.00 | 0.00 | 68 | 1008.6 |
| 20260507101512 | 14 | 48 | 3.2 | 9.7 | 0.00 | 0.00 | 0.00 | 67 | 1008.9 |
| 20260507100015 | 14 | 52 | 1.6 | 11.3 | 0.00 | 0.00 | 0.00 | 69 | 1009.0 |
| 20260507094509 | 13 | 108 | 4.8 | 12.9 | 0.00 | 0.00 | 0.00 | 69 | 1009.0 |
| 20260507093009 | 13 | 145 | 1.6 | 11.3 | 0.00 | 0.00 | 0.00 | 69 | 1009.0 |
| 20260507091501 | 13 | 96 | 1.6 | 12.9 | 0.00 | 0.00 | 0.00 | 71 | 1009.0 |
| 20260507090058 | 13 | 75 | 4.8 | 11.3 | 0.00 | 0.00 | 0.00 | 72 | 1009.0 |
| 20260507084602 | 13 | 59 | 3.2 | 14.5 | 0.00 | 0.00 | 0.00 | 72 | 1008.8 |
| 20260507083052 | 12 | 58 | 3.2 | 11.3 | 0.00 | 0.00 | 0.00 | 73 | 1008.8 |
| 20260507081551 | 12 | 63 | 1.6 | 11.3 | 0.00 | 0.00 | 0.00 | 74 | 1008.8 |
| 20260507080049 | 12 | 70 | 3.2 | 9.7 | 0.00 | 0.00 | 0.00 | 74 | 1008.9 |
| 20260507074551 | 12 | 37 | 1.6 | 8.0 | 0.00 | 0.00 | 0.00 | 75 | 1008.9 |
| 20260507073107 | 12 | 97 | 3.2 | 8.0 | 0.00 | 0.00 | 0.00 | 75 | 1008.8 |
| 20260507071543 | 11 | 98 | 3.2 | 8.0 | 0.00 | 0.00 | 0.00 | 75 | 1008.9 |
| 20260507070043 | 11 | 97 | 1.6 | 6.4 | 0.00 | 0.00 | 0.00 | 75 | 1009.0 |
| 20260507064546 | 11 | 9 | 1.6 | 6.4 | 0.00 | 0.00 | 0.00 | 75 | 1008.9 |
| 20260507063047 | 11 | 96 | 0.0 | 6.4 | 0.00 | 0.00 | 0.00 | 75 | 1008.9 |
| 20260507061541 | 11 | 100 | 0.0 | 8.0 | 0.00 | 0.00 | 0.00 | 74 | 1008.7 |
| 20260507060037 | 11 | 110 | 0.0 | 8.0 | 0.00 | 0.00 | 0.00 | 74 | 1008.6 |
| 20260507054537 | 11 | 91 | 3.2 | 11.3 | 0.00 | 0.00 | 0.00 | 73 | 1008.4 |
| 20260507053037 | 11 | 82 | 3.2 | 8.0 | 0.00 | 0.00 | 0.00 | 73 | 1008.3 |
| 20260507051533 | 11 | 87 | 3.2 | 12.9 | 0.00 | 0.00 | 0.00 | 73 | 1008.4 |
| 20260507050035 | 11 | 113 | 1.6 | 11.3 | 0.00 | 0.00 | 0.00 | 73 | 1008.2 |
| 20260507044533 | 11 | 84 | 3.2 | 12.9 | 0.00 | 0.00 | 0.00 | 72 | 1008.4 |
| 20260507043032 | 11 | 55 | 1.6 | 9.7 | 0.00 | 0.00 | 0.00 | 72 | 1008.3 |
| 20260507041631 | 11 | 110 | 1.6 | 12.9 | 0.00 | 0.00 | 0.00 | 72 | 1008.3 |
| 20260507040028 | 11 | 209 | 3.2 | 12.9 | 0.00 | 0.00 | 0.00 | 72 | 1008.3 |
| 20260507034534 | 11 | 103 | 1.6 | 9.7 | 0.00 | 0.00 | 0.00 | 73 | 1008.4 |
| 20260507033026 | 11 | 65 | 0.0 | 6.4 | 0.00 | 0.00 | 0.00 | 73 | 1008.5 |
| 20260507031525 | 11 | 22 | 1.6 | 8.0 | 0.00 | 0.00 | 0.00 | 72 | 1008.5 |
| 20260507030024 | 11 | 55 | 4.8 | 9.7 | 0.00 | 0.00 | 0.00 | 72 | 1008.6 |
| 20260507024523 | 11 | 83 | 4.8 | 11.3 | 0.00 | 0.00 | 0.00 | 72 | 1008.6 |
| 20260507023021 | 11 | 49 | 1.6 | 9.7 | 0.00 | 0.00 | 0.00 | 72 | 1008.6 |
| 20260507021520 | 11 | 72 | 4.8 | 11.3 | 0.00 | 0.00 | 0.00 | 71 | 1008.6 |
| 20260507020020 | 11 | 122 | 1.6 | 14.5 | 0.00 | 0.00 | 0.00 | 71 | 1008.5 |
| 20260507014523 | 11 | 78 | 1.6 | 9.7 | 0.00 | 0.00 | 0.00 | 71 | 1008.5 |
| 20260507013016 | 11 | 99 | 0.0 | 11.3 | 0.00 | 0.00 | 0.00 | 69 | 1008.5 |
| 20260507011616 | 11 | 111 | 4.8 | 16.1 | 0.00 | 0.00 | 0.00 | 68 | 1008.6 |
| 20260507010026 | 11 | 63 | 4.8 | 14.5 | 0.00 | 0.00 | 0.00 | 68 | 1008.7 |
| 20260507004510 | 11 | 93 | 4.8 | 14.5 | 0.00 | 0.00 | 0.00 | 67 | 1008.8 |
| 20260507003010 | 11 | 113 | 0.0 | 9.7 | 0.00 | 0.00 | 0.00 | 66 | 1008.9 |
| 20260507001508 | 12 | 84 | 3.2 | 9.7 | 0.00 | 0.00 | 0.00 | 65 | 1008.7 |
| 20260507000007 | 12 | 74 | 1.6 | 8.0 | 0.00 | 0.00 | 0.00 | 65 | 1008.7 |
| 20260506234508 | 11 | 42 | 3.2 | 9.7 | 0.00 | 0.00 | 0.00 | 64 | 1008.7 |
| 20260506233003 | 11 | 68 | 0.0 | 3.2 | 0.00 | 0.00 | 0.00 | 63 | 1008.6 |
| 20260506231502 | 11 | 46 | 0.0 | 1.6 | 0.00 | 0.00 | 0.00 | 62 | 1008.6 |
| 20260506230001 | 11 | 82 | 0.0 | 1.6 | 0.00 | 0.00 | 0.00 | 61 | 1008.6 |
| 20260506224618 | 11 | 71 | 0.0 | 3.2 | 0.00 | 0.00 | 0.00 | 59 | 1008.5 |
| 20260506223059 | 12 | 75 | 0.0 | 1.6 | 0.00 | 0.00 | 0.00 | 57 | 1008.4 |
| 20260506221556 | 12 | 69 | 0.0 | 0.0 | 0.00 | 0.00 | 0.00 | 54 | 1008.4 |
| 20260506220104 | 12 | 68 | 0.0 | 0.0 | 0.00 | 0.00 | 0.00 | 56 | 1008.4 |
| 20260506214552 | 12 | 68 | 0.0 | 0.0 | 0.00 | 0.00 | 0.00 | 53 | 1008.5 |
| 20260506213051 | 12 | 68 | 0.0 | 0.0 | 0.00 | 0.00 | 0.00 | 54 | 1008.4 |
| 20260506211555 | 12 | 69 | 0.0 | 1.6 | 0.00 | 0.00 | 0.00 | 54 | 1008.4 |
| 20260506210050 | 12 | 69 | 0.0 | 0.0 | 0.00 | 0.00 | 0.00 | 55 | 1008.3 |
| 20260506204550 | 13 | 69 | 0.0 | 1.6 | 0.00 | 0.00 | 0.00 | 54 | 1008.3 |
| 20260506203056 | 13 | 69 | 0.0 | 1.6 | 0.00 | 0.00 | 0.00 | 52 | 1008.2 |
| 20260506201549 | 13 | 122 | 0.0 | 0.0 | 0.00 | 0.00 | 0.00 | 51 | 1008.0 |
| 20260506200048 | 15 | 122 | 0.0 | 1.6 | 0.00 | 0.00 | 0.00 | 50 | 1008.0 |
| 20260506194552 | 15 | 122 | 0.0 | 0.0 | 0.00 | 0.00 | 0.00 | 45 | 1007.8 |
| 20260506193051 | 16 | 122 | 0.0 | 0.0 | 0.00 | 0.00 | 0.00 | 43 | 1007.7 |
| 20260506191547 | 16 | 125 | 0.0 | 3.2 | 0.00 | 0.00 | 0.00 | 41 | 1007.8 |
| 20260506190046 | 17 | 127 | 0.0 | 3.2 | 0.00 | 0.00 | 0.00 | 41 | 1007.7 |
| 20260506184546 | 18 | 143 | 0.0 | 4.8 | 0.00 | 0.00 | 0.00 | 38 | 1007.6 |
| 20260506183046 | 19 | 130 | 1.6 | 3.2 | 0.00 | 0.00 | 0.00 | 36 | 1007.6 |
| 20260506181559 | 20 | 134 | 0.0 | 4.8 | 0.00 | 0.00 | 0.00 | 35 | 1007.6 |
| 20260506180044 | 19 | 146 | 1.6 | 4.8 | 0.00 | 0.00 | 0.00 | 36 | 1007.6 |
| 20260506174542 | 20 | 162 | 1.6 | 4.8 | 0.00 | 0.00 | 0.00 | 36 | 1007.7 |
| 20260506173059 | 19 | 182 | 1.6 | 6.4 | 0.00 | 0.00 | 0.00 | 37 | 1007.8 |
| 20260506171547 | 20 | 104 | 1.6 | 8.0 | 0.00 | 0.00 | 0.00 | 37 | 1007.7 |
| 20260506170039 | 19 | 271 | 0.0 | 9.7 | 0.00 | 0.00 | 0.00 | 38 | 1007.8 |
| 20260506164539 | 19 | 153 | 1.6 | 11.3 | 0.00 | 0.00 | 0.00 | 37 | 1007.8 |
| 20260506163038 | 19 | 96 | 3.2 | 11.3 | 0.00 | 0.00 | 0.00 | 39 | 1007.9 |
| 20260506161537 | 19 | 168 | 1.6 | 11.3 | 0.00 | 0.00 | 0.00 | 38 | 1007.9 |
| 20260506160040 | 20 | 18 | 1.6 | 9.7 | 0.00 | 0.00 | 0.00 | 37 | 1008.0 |
| 20260506154535 | 18 | 352 | 1.6 | 8.0 | 0.00 | 0.00 | 0.00 | 38 | 1008.1 |
| 20260506153033 | 18 | 235 | 3.2 | 12.9 | 0.00 | 0.00 | 0.00 | 38 | 1008.2 |
| 20260506151533 | 18 | 167 | 3.2 | 14.5 | 0.00 | 0.00 | 0.00 | 41 | 1008.3 |
| 20260506150031 | 18 | 139 | 3.2 | 19.3 | 0.00 | 0.00 | 0.00 | 40 | 1008.4 |
| 20260506144529 | 18 | 219 | 1.6 | 8.0 | 0.00 | 0.00 | 0.00 | 39 | 1008.6 |
| 20260506143028 | 20 | 176 | 0.0 | 6.4 | 0.00 | 0.00 | 0.00 | 40 | 1008.8 |
| 20260506141523 | 19 | 95 | 1.6 | 4.8 | 0.00 | 0.00 | 0.00 | 40 | 1009.0 |
| 20260506140022 | 18 | 134 | 4.8 | 8.0 | 0.00 | 0.00 | 0.00 | 41 | 1009.2 |
| 20260506134522 | 18 | 248 | 0.0 | 6.4 | 0.00 | 0.00 | 0.00 | 43 | 1009.4 |
| 20260506133016 | 18 | 221 | 3.2 | 11.3 | 0.00 | 0.00 | 0.00 | 42 | 1009.5 |
| 20260506131537 | 18 | 96 | 1.6 | 9.7 | 0.00 | 0.00 | 0.00 | 44 | 1009.6 |
| 20260506130023 | 17 | 52 | 3.2 | 9.7 | 0.00 | 0.00 | 0.00 | 45 | 1009.7 |
| 20260506124514 | 17 | 74 | 1.6 | 6.4 | 0.00 | 0.00 | 0.00 | 46 | 1009.9 |
| 20260506123010 | 17 | 86 | 3.2 | 8.0 | 0.00 | 0.00 | 0.00 | 45 | 1010.0 |
| 20260506121507 | 17 | 281 | 1.6 | 8.0 | 0.00 | 0.00 | 0.00 | 46 | 1010.2 |
| 20260506120013 | 16 | 342 | 3.2 | 11.3 | 0.00 | 0.00 | 0.00 | 48 | 1010.3 |
| 20260506114506 | 16 | 213 | 0.0 | 14.5 | 0.00 | 0.00 | 0.00 | 48 | 1010.5 |
| 20260506113002 | 16 | 67 | 3.2 | 17.7 | 0.00 | 0.00 | 0.00 | 50 | 1010.4 |
| 20260506111600 | 15 | 84 | 1.6 | 11.3 | 0.00 | 0.00 | 0.00 | 51 | 1010.6 |
| 20260506110104 | 15 | 45 | 1.6 | 9.7 | 0.00 | 0.00 | 0.00 | 50 | 1010.7 |